Temp
10 10 10 9 10 10 10 12 14 13 13 13 16 16 16 17 17 17 17 18 18 18 17 17 18 17 17 15 14 16 16 17 18 18 16 16 16 17 17 17 17 17 17 17 16 16 15
11 11 11 10 10 11 11 11 13 13 15 16 16 16 16 17 17 17 17 18 17 16 15 15 17 17 17 17 15 16 16 17 17 17 16 15 16 16 16 16 16 16 16 16 15 16 16
11 11 11 12 12 11 10 10 12 13 14 15 16 16 17 17 17 17 17 17 16 16 16 16 16 17 14 14 15 16 16 16 16 17 15 15 16 17 15 16 15 15 18 17 15 15 14
10 11 11 11 12 11 10 10 12 12 14 15 16 16 16 16 17 17 17 17 16 16 16 16 16 17 13 15 16 16 16 16 16 16 16 16 16 14 15 15 14 15 14 17 17 16 15
10 10 11 11 11 11 10 9 11 14 15 15 15 16 16 16 17 17 17 16 16 16 16 16 16 16 14 16 16 15 16 16 16 16 16 16 15 13 14 14 14 12 16 16 17 15 15
10 10 11 11 11 12 12 11 12 14 15 15 16 16 16 16 16 17 17 16 16 16 16 17 16 16 14 14 15 15 15 15 15 15 15 14 11 12 11 14 16 16 15 15 16 16 13
10 10 10 11 11 12 12 13 14 15 15 15 15 16 16 16 16 17 16 16 15 14 14 13 13 14 14 15 15 15 15 15 15 13 14 12 14 15 15 14 14 14 15 15 15 14 13
9 10 10 11 11 11 12 13 14 14 15 15 15 15 16 16 16 16 16 11 9 12 13 13 14 14 14 14 15 14 15 15 15 13 14 13 15 14 14 14 14 14 14 14 13 13 13
10 9 10 10 11 11 12 12 13 14 15 15 15 15 16 16 16 15 13 10 10 11 12 14 14 14 14 15 13 13 13 13 14 14 14 14 15 14 15 14 14 14 13 13 14 13 9
10 10 10 10 10 11 12 13 13 14 14 15 15 15 16 16 16 13 11 10 11 11 11 15 15 14 14 14 13 13 12 13 13 14 13 14 13 14 14 14 13 14 12 13 13 13 13
10 10 10 10 10 10 11 12 13 14 14 14 15 15 15 16 14 12 11 11 11 12 13 15 14 15 14 14 13 13 12 13 14 13 14 15 13 14 14 14 13 14 13 12 12 11 11
10 10 10 10 10 10 10 11 13 13 14 14 14 15 15 14 13 12 11 11 11 12 13 15 14 14 14 14 13 12 12 10 12 12 12 12 11 12 13 12 12 12 12 9 8 9 9
11 11 10 10 10 11 11 11 12 13 13 14 14 14 14 13 11 12 12 11 13 12 15 15 14 13 13 13 13 11 10 9 12 13 13 12 12 12 12 13 12 12 11 11 11 9 11
12 11 11 10 10 10 11 11 12 12 13 13 13 13 12 12 11 11 12 12 16 15 14 13 13 13 14 12 12 11 11 10 7 9 9 10 11 11 11 11 12 11 11 12 13 11 11
11 11 11 10 10 10 10 11 12 12 13 13 13 12 11 11 11 12 10 10 13 13 13 13 13 13 13 12 12 12 10 9 8 8 12 10 12 10 9 10 10 11 11 10 11 8 7
11 11 11 10 10 10 10 11 11 12 12 13 12 11 10 10 11 12 10 13 13 11 11 12 15 13 13 12 12 11 11 8 7 7 7 8 10 9 10 9 9 10 10 10 9 10 9
12 11 10 10 10 10 10 10 11 12 12 13 11 9 9 10 10 8 11 10 11 9 10 12 12 12 11 12 10 10 11 7 7 6 7 7 8 9 8 8 9 8 8 8 9 8 10
12 11 11 10 9 9 9 10 11 12 12 11 9 11 9 10 9 4 9 10 9 9 9 10 10 10 10 10 10 9 9 8 6 6 7 6 5 7 8 5 5 6 7 7 8 7 4
12 11 11 11 9 9 9 9 10 11 12 11 8 8 9 10 11 8 7 8 8 9 9 9 9 8 8 9 10 8 7 5 6 6 6 6 6 6 8 6 5 5 5 4 2 2 3
11 11 11 11 10 9 9 9 10 11 10 10 8 11 8 5 3 9 9 9 9 6 7 7 8 8 8 8 7 8 6 5 5 6 8 6 5 7 9 7 4 4 4 4 3 1 4
10 11 11 10 10 9 9 9 9 10 10 9 7 10 7 10 7 7 8 9 8 8 6 7 7 7 8 8 7 7 5 4 5 6 4 5 4 3 3 3 3 4 4 4 3 3 2
9 10 10 11 10 9 9 8 8 10 9 9 7 8 5 6 6 7 8 7 8 7 7 7 7 7 6 7 7 6 5 4 5 4 4 2 4 2 1 2 2 2 3 3 3 3 2
9 9 10 10 10 9 9 8 8 8 9 7 5 6 8 6 5 6 6 8 7 6 4 4 6 5 6 5 4 3 2 2 4 3 2 3 2 1 1 0 1 2 -2 -0 -0 -3 -2
8 9 9 10 9 9 9 8 8 7 8 8 7 7 7 8 6 7 6 6 6 6 5 3 4 5 3 2 2 2 1 1 2 0 2 1 2 2 1 0 -0 -2 -4 -4 -3 -5 -8
7 8 8 9 9 8 8 8 7 6 6 7 7 7 6 7 5 5 5 3 3 2 2 3 2 1 2 3 3 3 2 2 1 -0 1 1 2 1 1 -1 -0 -3 -4 -4 -4 -4 -10
7 7 8 8 8 7 6 7 6 6 4 5 6 6 6 5 4 2 3 3 3 1 1 2 2 2 3 4 5 4 5 4 2 0 -0 0 -2 -0 -2 -1 0 -4 -4 -5 -9 -5 -9
7 7 8 8 7 6 5 5 5 3 4 5 5 5 5 1 -1 -0 2 3 2 2 1 1 1 2 2 3 4 3 3 2 1 1 -1 -2 -2 -2 -1 -2 -2 -6 -4 -5 -6 -6 -8
7 8 8 7 6 5 4 3 2 2 3 4 3 4 4 -2 -2 -1 -1 1 1 1 1 -0 1 1 0 2 3 -1 -2 -1 -0 -1 -1 -1 -1 -2 -3 -3 -3 -6 -5 -5 -7 -9 -8
8 8 7 7 5 4 2 2 3 2 3 4 2 3 3 -1 -2 -1 -1 -2 -2 -1 -0 -1 0 -0 -0 -1 -1 -2 -1 -3 -4 -3 -3 -2 -3 -3 -2 -3 -8 -8 -7 -8 -9 -9 -9
Height
845 844 842 841 840 839 838 836 835 834 833 831 830 828 826 824 822 820 818 815 813 812 812 812 812 812 813 817 822 821 819 817 815 814 814 814 817 820 826 826 827 831 834 834 836 836 843
844 844 843 841 840 839 838 837 836 835 833 832 830 828 826 824 822 820 818 816 814 813 813 812 812 813 814 821 823 822 820 819 817 817 817 817 820 820 825 830 831 833 834 836 837 838 840
844 844 844 842 841 840 839 838 837 835 834 832 830 828 826 824 822 820 818 816 815 814 814 814 813 813 817 827 824 822 820 819 818 818 819 820 820 821 825 830 832 834 833 833 838 837 844
844 844 844 843 841 841 840 839 837 835 833 832 830 828 826 824 822 820 818 816 816 815 815 814 814 814 825 824 824 823 821 821 820 819 820 821 821 824 828 831 837 840 843 843 836 836 840
845 844 844 844 842 841 841 839 837 835 833 831 830 828 825 823 821 819 818 817 816 816 815 815 816 814 826 824 823 822 821 820 820 821 821 821 821 832 833 840 845 851 846 844 839 836 839
846 845 844 843 843 841 840 839 837 834 833 831 829 827 825 823 821 819 818 817 817 817 816 816 816 821 824 827 824 823 822 822 821 822 824 826 834 840 844 844 847 844 847 846 843 839 843
846 845 845 843 842 841 840 838 836 834 833 831 829 827 825 823 821 819 818 818 821 821 818 825 827 827 826 825 824 824 823 822 822 825 832 834 837 838 837 838 841 843 842 842 839 839 844
845 845 844 843 842 841 840 838 836 834 833 832 830 828 825 823 821 820 819 821 827 828 829 826 825 825 825 825 826 825 824 825 826 834 832 838 837 835 835 837 837 840 844 846 844 842 843
843 844 844 843 841 840 839 838 836 834 833 831 830 828 826 823 821 822 823 827 828 828 830 828 826 826 827 827 830 830 828 829 831 833 836 839 836 836 835 838 840 842 846 847 844 846 858
840 841 842 842 841 840 839 837 836 834 832 831 829 827 825 823 824 824 827 828 828 829 842 831 828 828 828 827 832 831 831 833 835 836 839 840 839 839 841 842 846 843 843 842 844 849 851
838 839 839 840 840 840 839 837 835 833 832 830 829 827 825 823 824 826 829 828 828 829 864 835 831 828 828 831 834 833 833 831 837 839 840 839 842 842 842 841 843 844 843 846 847 852 857
835 836 837 837 837 838 838 837 835 833 831 829 828 827 825 825 825 827 826 827 828 845 860 833 832 832 831 832 834 834 834 834 837 838 841 841 843 841 841 843 843 844 848 861 869 867 868
831 833 834 835 835 834 836 836 834 832 830 829 828 827 825 825 827 826 826 826 844 858 836 837 837 835 836 836 837 840 844 850 840 841 843 841 841 842 842 842 844 844 850 855 858 867 845
827 829 831 832 833 833 832 833 833 832 831 829 828 827 826 826 827 826 826 833 839 834 836 838 838 837 837 840 841 842 842 847 855 850 857 853 847 844 847 844 842 847 848 848 841 851 841
823 825 827 829 830 831 831 831 831 831 830 829 828 827 827 827 827 826 832 856 841 837 836 836 837 837 838 840 840 841 846 850 856 855 843 852 843 849 849 849 848 847 850 852 847 865 875
817 820 823 826 827 829 829 829 829 829 829 828 828 828 829 828 827 827 840 837 836 840 839 838 833 837 837 840 842 844 842 854 858 860 860 858 851 854 849 851 853 848 851 854 857 856 855
812 815 818 821 823 826 827 827 828 828 828 827 828 830 830 829 829 833 843 844 838 843 841 837 837 838 842 840 847 848 845 858 859 862 861 863 862 854 855 856 852 858 856 859 857 859 848
808 810 812 816 819 822 824 825 826 826 826 827 827 833 831 830 839 853 845 840 842 843 844 843 843 845 846 847 849 854 851 857 862 861 860 864 872 868 857 872 871 869 863 860 855 861 885
803 806 808 811 815 817 819 821 823 824 824 825 830 832 830 830 837 844 845 843 844 843 842 843 844 846 848 845 846 853 854 865 863 863 865 865 869 877 854 873 872 872 874 879 889 889 886
798 802 805 807 810 812 814 816 820 823 823 825 829 829 833 834 843 838 840 837 839 846 845 845 845 846 848 848 851 849 859 863 863 862 859 862 872 860 849 859 874 876 875 877 880 895 869
795 796 799 803 806 809 812 811 814 818 822 824 827 829 833 830 837 839 838 837 838 839 846 846 846 845 845 851 853 855 863 866 865 863 868 867 873 877 874 875 876 873 871 874 877 873 880
794 795 796 797 800 803 807 809 811 815 818 822 825 829 837 838 839 840 838 841 837 842 844 844 844 844 849 849 850 855 862 864 861 869 868 876 872 881 882 876 878 876 871 872 870 869 876
791 792 792 792 793 797 801 805 808 811 815 817 821 823 823 837 843 843 841 835 838 840 849 848 844 846 848 852 857 862 864 867 864 869 873 876 880 886 883 886 882 875 886 879 881 892 892
787 787 786 787 789 792 796 800 805 808 811 812 815 818 826 829 835 834 837 840 842 844 847 853 848 845 856 858 861 861 865 869 869 874 872 879 879 882 886 886 891 891 897 897 896 901 914
784 782 782 784 786 788 791 797 801 804 807 811 813 814 818 826 830 835 838 846 851 853 856 854 856 856 854 857 862 864 869 871 877 880 876 877 878 884 888 894 881 896 897 899 900 897 917
780 780 780 782 782 784 790 795 797 800 804 808 812 814 814 822 834 837 840 843 848 855 860 860 860 857 856 854 853 857 853 859 872 878 879 878 887 888 899 895 881 897 898 901 911 904 913
777 775 775 778 780 785 792 794 795 801 803 806 810 814 815 828 842 840 840 842 843 848 857 860 860 859 857 854 853 859 863 868 869 873 881 889 893 894 893 894 889 901 897 900 914 911 908
769 768 767 772 779 784 789 792 795 802 803 805 810 814 816 832 844 842 844 844 845 846 852 857 861 861 862 858 857 874 880 876 875 878 878 881 885 894 900 899 899 900 900 902 906 907 907
764 762 765 770 777 783 786 789 794 800 805 803 810 815 817 824 844 845 846 846 846 847 849 856 854 856 856 865 871 875 873 884 889 890 890 890 889 889 889 890 902 902 901 903 905 907 907
Wind_Speed
7 7 8 8 9 9 10 11 11 10 10 11 11 10 12 12 12 12 12 11 9 8 6 5 3 2 2 5 1 7 9 8 5 3 8 3 4 2 4 3 3 4 2 3 3 3 9
7 7 8 8 9 10 10 10 10 10 10 10 11 11 12 13 13 13 12 11 9 7 5 5 3 3 2 3 4 8 8 8 11 8 8 7 2 1 5 3 3 2 2 2 4 3 4
5 6 7 9 10 10 10 10 9 10 10 10 11 11 12 13 13 12 11 8 6 5 5 5 4 4 7 2 4 6 6 9 10 7 3 5 2 3 2 3 1 2 3 3 4 2 5
4 5 7 9 10 11 11 11 9 9 9 10 11 11 12 13 13 13 10 6 3 4 5 4 4 3 3 3 5 8 7 6 6 8 7 4 4 5 3 3 5 4 4 3 2 2 1
3 4 5 6 7 8 10 11 10 9 9 10 11 12 12 13 12 12 9 3 2 3 3 3 3 4 2 1 2 6 7 3 3 4 5 4 5 4 4 4 3 6 2 2 3 0 3
4 4 4 6 8 9 10 11 9 9 9 9 11 12 13 14 13 12 6 1 3 1 2 2 4 4 4 2 3 4 3 4 4 3 3 6 5 3 3 3 4 4 3 2 3 1 5
6 5 4 6 8 9 10 12 9 10 10 11 12 12 13 14 11 12 4 1 4 3 10 4 1 3 1 3 2 5 5 2 2 7 3 3 4 2 3 4 2 4 3 4 3 1 4
7 6 5 6 7 9 10 11 10 9 10 12 13 13 13 14 8 12 5 6 3 2 4 2 1 2 1 2 2 6 6 3 3 3 1 5 2 3 4 3 4 3 2 4 4 1 1
8 8 7 7 6 8 10 11 11 9 9 10 12 13 14 13 5 6 12 6 3 2 4 2 0 1 1 2 2 5 5 1 3 2 2 4 3 1 2 2 2 3 4 3 4 3 3
12 9 8 9 8 8 9 10 11 9 9 10 11 12 13 11 3 5 5 5 3 3 4 3 2 2 2 2 4 3 6 2 4 2 2 1 2 2 1 3 4 2 3 2 2 2 3
13 11 8 8 9 9 9 9 10 9 9 9 10 11 10 9 2 4 2 3 1 1 4 1 2 1 2 3 1 4 5 4 2 2 2 1 2 1 1 3 4 3 3 2 1 1 2
15 13 11 8 7 8 10 11 10 8 8 8 9 9 7 4 5 3 2 2 1 6 4 1 2 3 2 3 2 3 4 6 2 3 2 3 2 1 2 2 2 3 3 5 3 2 2
16 15 13 10 7 6 8 11 11 9 7 8 8 7 5 4 2 3 2 1 5 4 2 3 2 3 2 2 2 4 3 5 1 2 3 2 2 0 1 2 2 2 3 3 3 0 6
18 17 14 12 9 7 6 8 10 11 9 8 6 4 5 5 3 3 1 5 2 2 3 1 1 1 1 3 0 2 2 2 1 2 3 3 4 2 2 2 4 4 4 4 6 4 3
22 19 16 14 11 8 7 7 8 8 7 6 4 1 2 4 2 1 5 4 6 4 1 3 0 1 2 1 1 2 1 2 2 1 4 4 4 0 2 1 1 3 3 1 2 1 1
25 22 19 16 13 10 8 7 8 7 6 5 2 1 3 3 2 2 4 4 3 2 2 2 5 2 3 2 1 0 2 2 3 1 1 1 3 0 1 2 3 2 3 3 1 4 5
24 25 23 19 16 13 10 8 8 6 5 4 1 3 3 2 2 4 3 6 3 1 1 3 3 3 5 3 4 2 2 1 1 2 2 2 1 1 1 1 3 1 1 2 1 3 3
20 26 23 22 19 16 12 8 6 4 1 0 2 1 5 1 3 1 3 3 1 2 1 1 1 2 4 2 3 3 3 1 1 3 3 1 3 3 3 1 2 2 1 2 3 4 1
12 24 25 22 23 18 14 9 5 4 4 3 3 1 3 1 2 2 1 1 1 3 3 2 2 2 1 3 3 4 2 2 2 1 3 4 1 3 3 2 2 1 1 3 3 2 5
7 14 25 27 25 22 17 12 8 6 7 5 3 0 2 3 1 4 4 3 4 1 2 2 3 2 3 4 2 2 3 1 1 1 3 1 2 5 8 3 2 3 3 3 4 3 5
8 9 25 30 27 24 21 16 15 12 10 7 2 2 0 2 3 3 3 5 4 5 2 3 2 5 5 4 2 4 2 0 2 2 2 2 4 2 3 3 3 4 6 6 8 6 6
9 10 18 28 33 28 24 19 17 13 13 4 4 3 0 2 2 4 3 5 7 2 5 3 3 2 4 4 3 4 5 4 4 1 3 1 2 2 2 4 2 6 9 9 9 9 6
11 11 13 31 34 33 25 22 18 16 16 4 3 3 3 3 2 3 4 3 5 7 1 2 3 5 4 2 2 3 3 3 2 5 5 3 3 2 3 3 5 8 2 1 2 1 2
17 13 11 29 35 35 28 24 19 21 21 6 5 6 4 3 4 4 3 2 1 1 4 1 1 4 4 5 5 4 6 6 5 5 2 5 4 2 3 3 2 1 1 2 1 2 1
19 14 10 25 35 33 30 22 22 20 19 13 8 4 3 3 2 3 5 4 3 4 3 2 2 1 6 4 3 2 2 1 3 4 2 2 3 1 2 2 6 1 1 2 3 3 3
20 15 11 20 33 31 25 24 19 18 20 16 8 5 2 5 3 3 3 4 4 3 2 1 1 2 1 2 2 3 4 2 3 2 3 4 4 3 2 2 4 3 2 3 3 4 3
24 16 15 16 30 24 21 19 19 18 17 16 7 6 4 4 1 2 3 3 4 3 3 2 3 1 2 2 2 3 3 1 3 4 4 2 1 4 4 3 5 3 3 3 5 5 2
22 19 14 19 29 24 22 17 17 17 17 15 8 6 3 3 2 3 3 1 2 2 4 4 3 1 1 2 2 2 2 3 2 2 3 5 5 3 2 2 6 1 2 4 2 2 1
16 6 12 30 26 23 23 24 24 20 18 13 7 11 14 11 3 12 13 11 1 1 3 2 1 2 3 3 1 2 2 1 1 2 1 2 2 3 4 3 2 2 0 2 2 1 2
Wind_Direction
44 35 39 28 20 14 11 8 7 6 5 4 10 2 3 1 357 356 356 355 352 353 354 354 28 94 98 50 70 1 13 18 33 61 50 45 54 88 120 120 85 69 36 41 25 27 80
30 23 21 19 16 13 8 4 5 4 6 8 8 4 1 359 359 359 355 353 0 12 17 36 68 97 82 88 28 12 24 40 43 52 41 35 87 100 91 58 73 155 80 7 31 40 89
26 20 13 9 8 6 2 360 2 3 5 8 5 3 360 359 355 355 350 354 6 21 34 56 72 89 60 118 26 26 36 49 45 57 87 55 56 66 125 106 296 107 108 116 55 148 128
11 8 7 4 6 4 360 356 357 2 6 6 4 1 359 357 354 350 344 347 18 39 50 54 55 78 88 58 50 36 48 59 59 62 87 55 64 99 56 118 28 60 54 99 347 131 113
330 350 358 357 0 0 358 356 358 3 6 3 360 358 356 351 349 346 343 351 37 49 50 34 46 90 90 58 54 22 29 46 72 65 64 84 73 79 31 84 33 7 170 187 307 136 130
287 323 342 351 353 353 353 354 357 358 358 358 357 354 352 349 347 348 350 103 56 32 7 58 66 51 18 322 328 343 19 37 71 66 33 39 47 72 47 80 224 183 160 238 229 181 82
261 298 326 342 351 352 353 352 353 353 353 354 355 353 349 349 351 354 1 246 15 350 36 93 190 113 254 315 6 10 357 29 57 51 77 6 76 180 222 183 144 135 154 203 242 191 120
254 286 314 330 343 351 351 352 353 353 352 352 352 351 349 351 353 4 19 70 73 154 63 19 99 81 62 9 34 349 2 82 66 105 115 31 150 196 124 145 136 145 170 246 292 317 120
255 281 294 314 328 344 347 347 347 347 351 354 353 351 351 352 6 24 60 62 50 8 96 341 62 90 303 42 100 328 13 38 81 92 52 141 173 148 158 170 163 215 194 209 234 22 60
247 256 279 300 317 330 342 345 345 342 349 352 356 356 356 356 69 22 55 24 25 22 72 316 339 16 23 85 49 353 12 50 33 134 140 214 2 171 142 251 136 266 192 147 152 92 240
237 245 259 282 304 315 330 338 341 342 344 352 353 358 3 28 71 65 4 11 11 50 17 326 344 346 30 78 140 4 28 15 88 79 73 13 140 125 203 239 173 254 54 43 353 158 2
241 244 252 261 281 306 320 329 333 336 342 349 354 358 7 33 64 60 36 355 335 44 265 333 348 356 45 34 50 322 35 43 162 120 79 214 257 165 225 60 52 124 86 47 52 85 262
235 240 245 254 266 288 309 323 328 331 338 347 354 0 35 41 73 26 12 70 35 122 2 6 348 15 14 359 54 41 28 18 146 66 350 310 177 82 75 135 19 93 76 307 322 284 237
235 236 238 242 257 273 293 317 327 333 337 346 352 24 60 66 39 12 21 50 119 257 200 199 32 69 261 346 45 18 125 156 184 119 142 160 299 162 358 173 179 182 165 180 269 234 271
235 236 239 239 247 262 286 306 319 328 333 342 338 19 78 25 36 28 70 68 213 190 179 165 68 105 278 284 265 9 264 214 161 191 175 154 267 74 67 356 109 168 191 111 292 149 331
239 238 236 238 245 253 271 291 307 319 326 341 318 58 42 16 34 78 78 226 210 199 162 154 208 190 241 233 229 301 198 139 145 349 347 200 305 267 258 140 33 195 140 90 54 284 270
252 242 236 235 239 244 257 279 302 315 330 339 336 48 2 354 31 52 167 223 209 195 196 170 210 236 218 220 200 233 246 65 89 120 68 130 119 264 340 226 171 103 209 55 348 165 250
265 253 244 239 234 233 242 262 283 295 310 6 99 4 359 67 46 18 163 196 35 169 14 274 59 231 200 177 210 244 239 29 318 159 148 181 142 259 251 24 356 34 143 181 187 206 146
258 261 256 243 230 228 229 236 253 237 182 157 120 231 24 84 194 231 232 197 183 166 181 156 186 170 93 205 228 195 203 29 358 143 164 188 209 344 304 39 10 238 206 103 86 64 199
293 258 259 248 234 228 223 215 213 215 189 166 114 258 358 61 80 145 158 220 201 183 177 145 144 128 151 208 175 226 195 102 21 145 105 134 173 207 248 224 133 208 206 197 157 163 251
288 276 249 240 242 233 224 214 206 191 191 178 65 228 289 206 247 169 181 161 176 200 221 189 159 209 174 202 201 218 129 127 16 12 58 122 219 206 272 247 227 238 238 212 210 216 238
289 286 249 244 239 236 225 218 200 185 180 183 143 150 75 98 64 140 187 220 207 200 152 215 201 131 175 199 213 197 148 190 201 81 139 13 239 98 281 344 358 270 239 234 248 258 258
299 284 266 236 235 233 234 222 203 192 183 148 141 108 100 125 141 126 226 207 215 141 42 69 165 129 158 171 125 105 74 60 123 159 171 145 139 65 265 337 315 274 228 171 105 77 146
332 294 287 234 231 231 233 224 210 198 203 167 162 133 121 219 179 196 146 99 149 227 144 60 71 131 151 118 115 91 63 67 81 57 92 142 136 163 280 330 267 9 69 82 353 253 214
331 309 287 234 226 228 230 225 214 201 202 189 173 158 152 154 131 133 132 120 95 42 52 83 27 43 142 132 75 50 24 108 59 40 44 31 129 192 273 247 327 116 293 160 116 283 201
318 305 283 235 227 221 220 214 203 203 189 189 174 166 133 129 179 84 127 165 153 113 68 50 24 127 145 117 134 197 227 186 186 118 45 95 78 135 142 213 262 217 152 123 118 279 215
314 294 280 244 212 198 195 198 185 179 186 183 171 184 98 107 22 125 147 173 130 101 108 148 191 134 319 129 166 191 217 193 212 180 164 105 60 197 214 240 284 196 131 161 86 253 206
309 295 264 205 197 187 190 179 169 170 181 172 135 157 114 94 42 27 12 119 95 131 154 169 103 298 64 163 174 195 145 209 148 151 174 180 166 198 113 203 270 127 121 174 194 191 265
314 278 186 181 178 183 171 161 156 165 178 161 109 122 106 82 112 98 77 53 346 52 109 3 82 135 154 94 134 114 143 107 104 270 349 242 194 177 191 216 194 214 234 114 126 196 277